Location: Seattle
(47.6064°N, 122.3308°W)
Time: 00:53:58
(UTC-08:00)

ISS - Visible Passes

Search period start: 17 January 2019 00:00
Search period end: 27 January 2019 00:00
Orbit: 404 x 407 km, 51.6° (Epoch: 17 January)

Date Brightness Start Highest point End Pass type
(mag) Time Alt. Az. Time Alt. Az. Time Alt. Az.
21 Jan -1.3 18:59:49 10° S 19:00:32 14° S 19:00:32 14° S visible
22 Jan -1.5 18:09:17 10° SSE 18:10:34 12° SE 18:11:03 12° SE visible
22 Jan -0.8 19:43:16 10° SW 19:43:45 13° SW 19:43:45 13° SW visible
23 Jan -2.9 18:51:33 10° SW 18:54:11 37° S 18:54:11 37° S visible
24 Jan -2.3 18:00:06 10° SSW 18:02:48 24° SE 18:04:31 16° E visible
24 Jan -1.4 19:35:47 10° WSW 19:37:13 24° WSW 19:37:13 24° WSW visible
25 Jan -3.9 18:43:47 10° WSW 18:47:03 77° SSE 18:47:29 63° E visible
26 Jan -3.3 17:51:56 10° SW 17:55:06 48° SSE 17:57:41 14° ENE visible
26 Jan -1.9 19:28:25 10° W 19:30:22 30° WNW 19:30:22 30° WNW visible
